www.pogodaiklimat.ru

Погода и климат >> Архив погоды >> Россия >> Калмыкия >> Малые Дербеты


ПОГОДА в Малых Дербетах

  • Прогноз погоды в Малых Дербетах
  • Монитор погоды в Малых Дербетах
  • Климат города

АРХИВ ПОГОДЫ в Малых Дербетах

Время (UTC), дата Ветер
(напр.,м/с)
 
Видим.   Явления Облачность Т
(С)
Тd
(С)
f
(%)
Тe
(С)
Тes
(С)
Комфортность P
(гПа)
Po
(гПа)
Тmin
(С)
Tmax
(С)
R
(мм)
R24
(мм)
S
(см)
09 19.06 В 1 20 км 10/4 600 м
[Cu med, cong Ac trans]
+26.8 +6.2 27 +26 +31 жарко 1010.2 1009.2
12 19.06 З 1 20 км 10/3 600 м
[Cu med, cong Ci fib]
+28.5 +5.1 23 +27 +35 жарко 1008.8 1007.8
15 19.06 СВ 1 20 км 6/0
[Ac trans]
+28.3 +5.1 23 +27 +29 жарко 1008.0 1007.0 +29.7
18 19.06 С 2 20 км 8/8 600 м
[Sc]
+23.3 +8.2 38 +24 +24 комфорт 1008.7 1007.7
21 19.06 СЗ 2 20 км 4/0
[Ci sp]
+19.9 +10.5 55 +22 +22 комфорт 1008.8 1007.7
00 20.06 З 1 20 км ясно +15.3 +8.8 65 +16 +16 1008.3 1007.2
03 20.06 З 1 20 км 3/0
[Ci fib]
+19.8 +10.7 56 +22 +24 комфорт 1008.1 1007.0 +13.2
06 20.06 СЗ 1 20 км 3/1 600 м
[Cu hum Ci fib]
+28.1 +7.1 27 +27 +39 жарко 1007.5 1006.5
09 20.06 З 2 20 км 3/3 600 м
[Cu hum]
+30.2 +3.5 18 +28 +41 жарко 1006.5 1005.5
12 20.06 СЗ 2 20 км 8/5 600 м
[Cu med, cong Ci sp]
+30.2 +4.5 20 +28 +34 жарко 1005.5 1004.5
15 20.06 З 1 20 км 8/1 600 м
[Cu med, cong Ac trans]
+29.0 +5.6 23 +28 +29 жарко 1005.4 1004.4 +31.6
18 20.06 З 1 20 км 6/0
[Ac und]
+23.5 +9.5 41 +24 +24 комфорт 1006.2 1005.2
21 20.06 С 1 20 км ясно +22.0 +12.2 54 +24 +24 комфорт 1006.7 1005.7
00 21.06 Ю 1 20 км 9/0
[Ac und]
+19.4 +11.8 61 +22 +22 комфорт 1006.6 1005.5
03 21.06 З 2 20 км ясно +20.2 +14.8 71 +23 +25 комфорт 1006.4 1005.4 +17.9
06 21.06 ЮЗ 1 20 км ясно +27.9 +11.7 37 +29 +43 жарко 1005.8 1004.8
09 21.06 ЮЗ 2 20 км 4/4 600 м
[Cu med, cong]
+31.6 +7.8 23 +30 +41 жарко 1004.7 1003.7
12 21.06 ЮЗ 2 20 км 4/4 600 м
[Cu med, cong]
+31.0 +8.0 24 +30 +37 жарко 1003.5 1002.4
15 21.06 СЗ 4 20 км гроза без осадков 10/8 600 м
[Cb cap Ci fib]
+29.1 +10.9 32 +29 +30 жарко 1003.8 1002.8 +33.7
18 21.06 ЮЗ 3 20 км {гроза} 8/0
[Ac cuf Ci sp]
+24.8 +12.4 46 +27 +27 жарко 1005.4 1004.4
21 21.06 ЮЗ 2 20 км зарница 3/3 600 м
[Cb cap]
+22.2 +12.8 55 +25 +25 комфорт 1004.7 1003.7
00 22.06 ЮЗ 3 20 км 10/0
[Ac cast]
+21.2 +13.0 59 +23 +23 комфорт 1004.4 1003.4
03 22.06 ЮЗ 2 20 км 10/0
[Ac trans]
+20.9 +14.9 69 +25 +25 комфорт 1004.5 1003.5 +19.8
06 22.06 ЮЗ 3 20 км 8/1 600 м
[Cu med, cong Ac cast]
+27.0 +12.5 41 +29 +33 жарко 1005.2 1004.2
09 22.06 20 км гроза без осадков н/о +27.6 +14.2 44 +30 +38 жарко 1004.8 1003.8
12 22.06 З 4 20 км в посл. час гроза 8/5 600 м
[Cu med, cong Ci fib]
+29.9 +11.2 31 +30 +34 жарко 1004.4 1003.4
15 22.06 СЗ 3
{11}
20 км 10/1 600 м
[Cu med, cong Cs]
+26.6 +5.2 25 +26 +27 жарко 1006.2 1005.2 +30.2
18 22.06 СЗ 2 20 км 10/0
[Ci fib]
+21.3 +3.2 30 +21 +21 комфорт 1009.2 1008.1
21 22.06 ЮЗ 1 20 км ясно +16.2 +5.1 48 +17 +17 1011.0 1009.9
00 23.06 З 1 20 км ясно +15.2 +5.9 54 +16 +16 1011.5 1010.5
03 23.06 штиль 0 20 км 10/0
[Ac trans Ci fib]
+17.0 +7.5 54 +17 +18 1012.2 1011.1 +12.9
06 23.06 Ю 2 20 км 10/4 600 м
[Cu med, cong Ac und Ci fib]
+24.9 +5.9 29 +25 +28 комфорт 1012.8 1011.7
09 23.06 ЮЗ 5 20 км пыльный позёмок 10/5 600 м
[Cu med, cong As trans]
+26.4 +3.9 23 +25 +27 комфорт 1012.0 1011.0
12 23.06 ЮЗ 5-10
{12}
20 км пыльный позёмок 5/5 600 м
[Cu med, cong]
+28.8 +3.5 20 +27 +30 жарко 1010.5 1009.4
15 23.06 ЮЗ 5-11
{14}
20 км пыльный позёмок 3/0
[Ac trans]
+26.1 +6.4 28 +26 +27 жарко 1010.4 1009.3 +29.1
18 23.06 Ю 1
{11}
20 км 3/0
[Ac trans Ci fib]
+21.0 +6.1 38 +23 +23 комфорт 1010.7 1009.7
21 23.06 Ю 1 20 км 10/0
[Ci sp]
+19.2 +7.5 47 +21 +21 комфорт 1010.3 1009.2
00 24.06 ЮЗ 2 20 км 10/0
[Ac cast Cs]
+18.0 +10.2 60 +19 +19 1008.8 1007.7
03 24.06 Ю 2 20 км 10/0
[Cs]
+19.0 +13.6 71 +21 +22 комфорт 1008.1 1007.1 +17.7
06 24.06 Ю 3 20 км 10/0
[Ac lent Cs]
+22.2 +14.0 60 +25 +30 комфорт 1006.7 1005.6
09 24.06 Ю 4
{13}
4000 м слабый ливневой дождь 10/10 570 м
[Cb cap]
+18.1 +17.2 94 +18 +18 1005.2 1004.2
12 24.06 ЮЗ 8-11
{18}
4000 м слабый ливневой дождь 10/6 600 м
[Cb cap Ac As]
+20.7 +18.1 85 +24 +24 комфорт 1002.8 1001.8
15 24.06 З 4
{15}
20 км в посл. час ливневой дождь 10/3 600 м
[Cb cap Cs]
+22.1 +17.4 75 +27 +27 душно 1004.5 1003.4 +26.2 5
18 24.06 СЗ 2 20 км {ливн. осадки} 10/0
[Ci fib]
+18.4 +12.7 69 +19 +19 1008.0 1006.9
21 24.06 СЗ 2 20 км 9/0
[Ac As]
+15.6 +11.4 76 +16 +16 1009.1 1008.0
00 25.06 СЗ 1 20 км 10/0
[Ci fib]
+13.5 +10.1 80 +14 +14 1010.4 1009.3
03 25.06 СЗ 1 20 км 10/0
[Ac trans Ci fib]
+14.1 +10.5 79 +14 +16 1012.0 1010.9 +12.9
06 25.06 СВ 1 20 км 10/0
[Ac As Cs]
+18.7 +6.5 45 +20 +27 1012.8 1011.8
09 25.06 Ю 1 20 км 4/1 600 м
[Cu hum Ci fib]
+23.3 +6.1 33 +24 +42 комфорт 1013.5 1012.4
12 25.06 20 км н/о +25.6 +4.9 26 +25 +30 комфорт 1013.0 1012.0
15 25.06 ЮВ 1 20 км 5/5 600 м
[Cu med, cong]
+25.4 +6.0 29 +25 +26 комфорт 1013.5 1012.4 +26.1
18 25.06 З 1 20 км ясно +19.7 +7.7 46 +22 +22 комфорт 1015.0 1014.0
21 25.06 ЮЗ 2 20 км 10/0
[Cs]
+19.9 +6.2 41 +21 +21 комфорт 1016.0 1014.9
00 26.06 Ю 2 20 км 9/0
[Ac As]
+18.8 +9.5 55 +20 +20 1015.8 1014.8
03 26.06 Ю 3 20 км 10/0
[Ac und]
+20.0 +9.5 51 +22 +22 комфорт 1016.2 1015.1 +18.6
06 26.06 ЮЗ 3 20 км 3/0
[Ci fib]
+26.8 +8.6 32 +27 +36 жарко 1016.3 1015.3

 

Местоположение метеостанции Малые Дербеты (Калмыкия, Россия): широта 47.93 долгота 44.70 высота над уровнем моря 9 м.

В архиве по умолчанию представлена погода в Малых Дербетах за последнюю неделю. Архивные данные за месяц целиком и за предыдущие месяцы, начиная с января 2011 года, Вы можете получить, выбрав интересующий диапазон дат из раскрывающегося списка и нажав кнопку "Ввод!".

Внимание! Время в таблицах - всемирное. Для получения местного времени необходимо прибавить поправку, которая в Малых Дербетах равна 3 ч.

Смотрите также архив погоды в соседних городах и на ближайших метеорологических станциях:

Погода в Кетченерах (Калмыкия, Россия) (69 км)
Погода в Волгограде город (Волгоградская область, Россия) (84 км)
Погода в Волгограде (Волгоградская область, Россия) (98 км)
Погода в Черный Яр (Астраханская область, Россия) (107 км)
Погода в Котельниково (Волгоградская область, Россия) (121 км)
Погода в Калаче-на-Дону (Волгоградская область, Россия) (123 км)
Погода в Нижнем Чире (Волгоградская область, Россия) (125 км)
Погода в Юсте (Калмыкия, Россия) (151 км)
Погода в Верхнем Баскунчаке (Астраханская область, Россия) (154 км)
Погода в Иловле (Волгоградская область, Россия) (161 км)

Пояснения к столбцам:

Ветер - указаны скорость ветра в м/с - средняя за 10 мин, порывы в срок и между сроками (в фигурных скобках) и направление, откуда дует ветер: С - северный, СВ - северо-восточный, В - восточный, ЮВ - юго-восточный, Ю - южный, ЮЗ - юго-западный, З - западный, СЗ - северо-западный.
Видимость - горизонтальная дальность видимости в метрах или километрах. При видимости от 1 до 10 км при отсутствии осадков обычно наблюдается дымка, при ухудшении видимости до 1 км и менее - туман. В сухую погоду видимость может ухудшаться дымом, пылью или мглою.
Явления - указаны атмосферные явления, наблюдавшиеся в срок или в последний час перед сроком; фигурными скобками обозначены явления, наблюдавшиеся между сроками (за 1-3 часа до срока); квадратными скобками обозначены град или гололедные отложения с указанием их диаметра в мм.
Облачность - указаны через наклонную черту общая и нижняя облачность в баллах и высота нижней границы облаков в метрах; квадратными скобками обозначены формы облаков: Ci - перистые, Cs - перисто-слоистые, Cc - перисто-кучевые, Ac - высококучевые, As - высокослоистые, Sc - слоисто-кучевые, Ns - слоисто-дождевые, Cu - кучевые, Cb - кучево-дождевые. Подробнее классификацию облаков см. в Атласе облаков (PDF).
T - Температура воздуха - температура, измеренная на высоте 2 м над землей.
Td - Температура точки росы - температура, при понижении до которой содержащийся в воздухе водяной пар достигнет насыщения.
f - Относительная влажность воздуха - влажноcть воздуха, измеренная на высоте 2 м над землей.
Te - Эффективная температура - температура, которую ощущает одетый по сезону человек в тени. Характеристика душности погоды. При расчете учитывается влияние влажности воздуха и скорости ветра на теплоощущения человека.
Tes - Эффективная температура на солнце - температура, которую ощущает человек, с поправкой на солнечный нагрев. Характеристика знойности погоды. Зависит от высоты солнца над горизонтом, облачности и скорости ветра. Ночью, в пасмурную погоду, а также при ветре 12 м/с и более поправка равна нулю.
P - Атмосферное давление - приведенное к уровню моря атмосферное давление.
Po - Атмосферное давление - измеренное на уровне метеостанции атмосферное давление.
Tmin - Минимальная температура - минимум температуры воздуха на высоте 2 м над землей.
Tmax - Максимальная температура - максимум температуры воздуха на высоте 2 м над землей.
R - Количество осадков - Количество выпавших осадков за период времени, мм. При наведении курсора мыши на число - период времени, за который выпало указанное количество осадков.
R24 - Количество осадков - Количество выпавших осадков за 24 часа, мм.
S - Снежный покров - Высота снежного покрова, см. При наведении курсора мыши на число - состояние снежного покрова и степень покрытия местности в баллах.